[[{"header":{"parameterUnit":"m.s-1","parameterCategory":1,"la1":30.2991,"la2":30.254,"lo1":-89.0895,"lo2":-89.0444,"dy":0.0017,"dx":0.0017,"nx":28,"ny":28,"refTime":"2025-04-18T21:00:00:Z","depth":0,"parameterNumber":2,"parameterNumberName":"U-component_of_WINDS"},"data":[0,0,0,0,0,0,0,0,0,0,0,0,0,0,0,0,0,0,0,0,0,0,0,0,0,0,0,0,0,0,0,0,0,0,0,0,0,0,0,0,0,0,0,0,0,0,0,0,0,0,0,0,0,0,0,0,0,0,-5.7318,-5.7319,0,-5.7375,-5.7375,-5.7376,-5.7313,-5.731,-5.7308,-5.7306,-5.7362,-5.7365,-5.7369,0,0,0,0,0,0,0,0,0,0,0,0,0,-5.7155,-5.7158,-5.7318,-5.7319,-5.732,-5.7375,-5.7375,-5.7376,-5.7313,-5.731,-5.7307,-5.7305,-5.736,-5.7365,-5.7369,0,0,0,0,0,0,0,0,0,0,0,0,0,-5.722,-5.7159,-5.7318,-5.7295,-5.7293,-5.7375,-5.7375,-5.7376,-5.7314,-5.731,-5.7307,-5.7303,-5.7359,-5.7364,-5.737,-5.7476,0,0,-5.7387,-5.7389,0,0,0,0,0,0,0,0,-5.7216,-5.7226,-5.7298,-5.7297,-5.7295,-5.7333,-5.7338,-5.741,-5.7315,-5.7306,-5.7306,-5.7302,-5.7355,-5.7361,-5.7379,-5.7478,-5.7481,-5.7387,-5.7391,-5.7393,-5.7395,0,0,0,0,0,0,0,-5.7212,-5.7223,-5.734,-5.7299,-5.7297,-5.7281,-5.7287,-5.7351,-5.735,-5.7307,-5.7302,-5.731,-5.7353,-5.7374,-5.738,-5.7482,-5.7387,-5.7392,-5.7395,-5.7398,-5.767,-5.7674,0,0,0,0,0,0,-5.721,-5.722,-5.7339,-5.7342,-5.7246,-5.7287,-5.7293,-5.7325,-5.7349,-5.7349,-5.7313,-5.7307,-5.7366,-5.7373,-5.7381,-5.7506,-5.7393,-5.7398,-5.7401,-5.7666,-5.7671,-5.7675,0,0,0,0,0,0,-5.7207,-5.7221,-5.7336,-5.728,-5.7293,-5.7294,-5.733,-5.7328,-5.7348,-5.7354,-5.7353,-5.7334,-5.7363,-5.7374,-5.7453,-5.7507,-5.7401,-5.7406,-5.7662,-5.7668,-5.7673,-5.7756,0,0,0,0,0,0,-5.7202,-5.722,-5.7261,-5.7281,-5.7297,-5.7407,-5.7333,-5.7331,-5.7358,-5.735,-5.7373,-5.7373,-5.7361,-5.7445,-5.7458,-5.7513,-5.741,-5.7657,-5.7665,-5.7671,-5.7749,-5.7764,-5.7778,0,0,0,0,0,-5.7197,-5.7281,-5.7263,-5.7278,-5.7347,-5.741,-5.7419,-5.7404,-5.7362,-5.7402,-5.7407,-5.7373,-5.75,-5.7454,-5.7468,-5.7525,-5.7653,-5.7662,-5.7671,-5.7742,-5.7761,-5.7777,0,0,0,0,0,0,-5.7266,-5.7284,-5.7263,-5.7357,-5.7383,-5.74,-5.745,-5.7425,-5.7462,-5.7453,-5.7433,-5.7439,-5.7523,-5.7532,-5.748,-5.7629,-5.757,-5.7582,-5.7619,-5.7637,-5.7651,-5.7645,-5.7415,0,0,0,0,0,-5.7293,-5.7343,-5.7356,-5.7438,-5.7452,-5.7449,-5.7476,-5.7463,-5.7488,-5.7498,-5.7508,-5.7533,-5.7579,-5.7609,-5.7651,-5.7751,-5.7754,-5.7798,-5.7812,-5.7824,-5.7833,-5.7886,-5.7905,-5.7704,-5.7704,-5.7704,0,0,-5.7347,-5.7363,-5.7396,-5.7452,-5.747,-5.7522,-5.7458,-5.7516,-5.7554,-5.7506,-5.7581,-5.759,-5.7617,-5.7707,-5.7747,-5.7717,-5.789,-5.7835,-5.7845,-5.7848,-5.7897,-5.7916,-5.7933,-5.771,-5.7709,-5.7708,0,0,-5.7473,-5.7491,-5.756,-5.758,-5.7609,-5.7607,-5.7625,-5.7646,-5.7649,-5.7725,-5.769,-5.7736,-5.7815,-5.7835,-5.7856,-5.7992,-5.7962,-5.8007,-5.8081,-5.8133,-5.8148,-5.8162,-5.8209,-5.8226,-5.8017,-5.8017,-5.8018,0,-5.7536,-5.7614,-5.7599,-5.766,-5.7685,-5.7646,-5.7716,-5.7736,-5.7777,-5.7795,-5.7762,-5.7861,-5.7877,-5.797,-5.8004,-5.8023,-5.804,-5.8002,-5.8147,-5.8161,-5.8174,-5.8218,-5.8236,-5.8022,-5.8022,-5.8021,-5.8021,0,-5.769,-5.7745,-5.7797,-5.7839,-5.787,-5.7935,-5.793,-5.7964,-5.7949,-5.795,-5.8028,-5.8046,-5.8091,-5.8113,-5.8098,-5.8204,-5.8185,-5.8151,-5.809,-5.8198,-5.8239,-5.8256,-5.803,-5.8028,-5.8026,-5.8025,0,0,-5.7857,-5.7891,-5.791,-5.7929,-5.7959,-5.8001,-5.8065,-5.811,-5.8138,-5.8169,-5.8221,-5.829,-5.8258,-5.8282,-5.827,-5.8316,-5.842,-5.8275,-5.8276,-5.8299,-5.8537,-5.856,-5.858,-5.8402,-5.8405,-5.8408,-5.8534,0,-5.7981,-5.8091,-5.8081,-5.8185,-5.8235,-5.82,-5.8256,-5.828,-5.8284,-5.8327,-5.8331,-5.8379,-5.8335,-5.8349,-5.8393,-5.8398,-5.8467,-5.839,-5.8448,-5.845,-5.8439,-5.8602,-5.8627,-5.8745,-5.855,-5.8553,-5.8555,0,-5.8139,-5.8176,-5.8286,-5.8309,-5.833,-5.838,-5.842,-5.8462,-5.8489,-5.8489,-5.8517,-5.8497,-5.8561,-5.8502,-5.8589,-5.8536,-5.856,-5.8567,-5.8571,-5.8573,-5.8507,-5.8606,-5.8782,-5.8799,-5.858,-5.8578,-5.8576,0,-5.8247,-5.8325,-5.84,-5.8417,-5.8447,-5.8483,-5.8497,-5.8521,-5.8549,-5.8585,-5.8602,-5.8645,-5.8668,-5.8702,-5.8694,-5.8652,-5.8782,-5.8723,-5.8782,-5.8782,-5.8808,-5.8806,-5.8987,-5.8829,-5.8829,-5.8828,-5.8828,0,-5.8385,-5.8453,-5.8449,-5.8495,-5.857,-5.8558,-5.8633,-5.8642,-5.8665,-5.8711,-5.8685,-5.873,-5.8719,-5.8763,-5.8758,-5.8829,-5.8841,-5.8841,-5.8838,-5.8842,-5.8841,-5.8854,-5.8845,-5.8833,-5.8832,-5.8831,-5.883,0,-5.8516,-5.8517,-5.8596,-5.8619,-5.8626,-5.868,-5.8699,-5.8742,-5.8746,-5.8805,-5.8819,-5.8823,-5.8874,-5.8871,-5.8928,-5.8925,-5.9013,-5.9002,-5.9003,-5.9,-5.9058,-5.9052,-5.9252,-5.9277,-5.9105,-5.9107,-5.9108,0,-5.8602,-5.8654,-5.8682,-5.8712,-5.8729,-5.8778,-5.8806,-5.8798,-5.8828,-5.8865,-5.8903,-5.8952,-5.899,-5.9073,-5.9081,-5.9125,-5.9113,-5.918,-5.9119,-5.9121,-5.9111,-5.9106,-5.9111,-5.9191,-5.9193,-5.9194,-5.9196,0,-5.8755,-5.8753,-5.8795,-5.8839,-5.8874,-5.8908,-5.8939,-5.8965,-5.8959,-5.8996,-5.9048,-5.9077,-5.9137,-5.9185,-5.9227,-5.9241,-5.9217,-5.9216,-5.9231,-5.9233,-5.9231,-5.9231,-5.9033,-5.921,-5.9209,-5.9208,-5.9207,-5.9206,-5.8864,-5.8908,-5.8935,-5.8984,-5.9007,-5.9036,-5.9078,-5.9087,-5.9131,-5.9178,-5.9171,-5.9229,-5.9256,-5.931,-5.9328,-5.9373,-5.9349,-5.9372,-5.9377,-5.9382,-5.9388,-5.9227,-5.9381,-5.9381,-5.938,-5.938,-5.938,0,-5.9013,-5.9029,-5.9074,-5.9119,-5.9157,-5.9134,-5.9167,-5.92,-5.9252,-5.928,-5.9318,-5.9378,-5.9425,-5.9438,-5.9483,-5.9517,-5.9507,-5.9529,-5.9525,-5.9528,-5.9408,-5.9389,-5.9536,-5.9536,-5.9536,-5.9536,-5.9536,-5.9536,-5.9094,-5.9167,-5.9169,-5.9253,-5.9269,-5.9326,-5.9346,-5.9374,-5.9396,-5.9464,-5.9503,-5.9512,-5.9534,-5.958,-5.9623,-5.9625,-5.9642,-5.9667,-5.9665,-5.9552,-5.9536,-5.9521,-5.9503,-5.9672,-5.9672,-5.9781,-5.9782,-5.9783]},{"header":{"parameterUnit":"m.s-1","parameterCategory":1,"la1":30.2991,"la2":30.254,"lo1":-89.0895,"lo2":-89.0444,"dy":0.0017,"dx":0.0017,"nx":28,"ny":28,"refTime":"2025-04-18T21:00:00:Z","depth":0,"parameterNumber":3,"parameterNumberName":"V-component_of_WINDS"},"data":[0,0,0,0,0,0,0,0,0,0,0,0,0,0,0,0,0,0,0,0,0,0,0,0,0,0,0,0,0,0,0,0,0,0,0,0,0,0,0,0,0,0,0,0,0,0,0,0,0,0,0,0,0,0,0,0,0,0,3.4134,3.4135,0,3.4254,3.4256,3.4257,3.4334,3.4335,3.4335,3.4336,3.4454,3.4457,3.4459,0,0,0,0,0,0,0,0,0,0,0,0,0,3.3965,3.3967,3.4134,3.4135,3.4137,3.4254,3.4256,3.4257,3.4334,3.4335,3.4335,3.4336,3.4453,3.4456,3.4459,0,0,0,0,0,0,0,0,0,0,0,0,0,3.4057,3.3968,3.4133,3.4189,3.4195,3.4254,3.4256,3.4258,3.4334,3.4335,3.4335,3.4336,3.4452,3.4456,3.446,3.4471,0,0,3.4472,3.4474,0,0,0,0,0,0,0,0,3.4051,3.4063,3.4179,3.4185,3.4193,3.428,3.424,3.4329,3.4334,3.4281,3.4336,3.4336,3.4395,3.4404,3.4425,3.4476,3.4481,3.4473,3.4475,3.4477,3.4478,0,0,0,0,0,0,0,3.4045,3.4058,3.4181,3.4181,3.4189,3.4207,3.422,3.4257,3.4332,3.4286,3.4292,3.4305,3.4399,3.4421,3.4428,3.4483,3.4473,3.4476,3.4479,3.448,3.4549,3.4549,0,0,0,0,0,0,3.403,3.4052,3.4177,3.4185,3.4122,3.4209,3.4225,3.4251,3.4332,3.4346,3.4305,3.4308,3.4413,3.4423,3.4433,3.4452,3.4477,3.4481,3.4483,3.455,3.4549,3.4549,0,0,0,0,0,0,3.4026,3.4041,3.4173,3.412,3.4138,3.4211,3.424,3.4253,3.4275,3.4347,3.436,3.4313,3.4414,3.4427,3.4461,3.4457,3.4483,3.4486,3.4551,3.455,3.4549,3.4488,0,0,0,0,0,0,3.4021,3.4039,3.4045,3.412,3.4141,3.42,3.424,3.4255,3.4283,3.4289,3.4359,3.4371,3.4416,3.4455,3.4465,3.4463,3.4489,3.4551,3.455,3.4549,3.4491,3.4485,3.4481,0,0,0,0,0,3.4015,3.4022,3.4045,3.406,3.415,3.42,3.4212,3.4266,3.4282,3.4288,3.4334,3.4368,3.4455,3.4457,3.447,3.4469,3.4552,3.4551,3.4549,3.4493,3.4487,3.4481,0,0,0,0,0,0,3.3943,3.4033,3.4059,3.4091,3.4138,3.4213,3.4223,3.4256,3.4298,3.4302,3.4365,3.438,3.4407,3.4441,3.4442,3.4483,3.4507,3.4508,3.4461,3.4455,3.445,3.4441,3.4493,0,0,0,0,0,3.3931,3.3966,3.4041,3.4062,3.4084,3.4149,3.4173,3.421,3.426,3.4279,3.4328,3.4373,3.4411,3.4434,3.4473,3.4496,3.4512,3.4501,3.4495,3.4491,3.4491,3.4506,3.4502,3.4544,3.4544,3.4544,0,0,3.3906,3.396,3.3977,3.4049,3.4089,3.4123,3.4165,3.4198,3.4223,3.4284,3.432,3.4357,3.4412,3.444,3.4455,3.4469,3.4483,3.4489,3.4485,3.4488,3.4504,3.45,3.4496,3.4543,3.4543,3.4543,0,0,3.3879,3.3923,3.3945,3.3985,3.4046,3.4089,3.4094,3.4165,3.4192,3.423,3.4276,3.4305,3.4369,3.4406,3.4434,3.4419,3.4453,3.443,3.4403,3.4416,3.4413,3.4411,3.4406,3.4404,3.443,3.4429,3.4429,0,3.384,3.3894,3.3952,3.3983,3.4013,3.4071,3.4093,3.4128,3.4198,3.4216,3.4231,3.4313,3.4353,3.4392,3.4389,3.4408,3.4416,3.4423,3.4409,3.4407,3.4406,3.4402,3.44,3.4426,3.4427,3.4427,3.4427,0,3.3844,3.388,3.389,3.3958,3.3989,3.4015,3.4076,3.4099,3.4133,3.4174,3.4211,3.4262,3.4312,3.4324,3.4356,3.4367,3.4374,3.4398,3.4424,3.4398,3.4395,3.4394,3.4422,3.4423,3.4424,3.4425,0,0,3.3776,3.3875,3.3878,3.391,3.3981,3.401,3.4037,3.4088,3.4108,3.4153,3.4178,3.423,3.4253,3.4284,3.4321,3.4333,3.4319,3.4356,3.4358,3.4348,3.4334,3.4316,3.4314,3.4341,3.4341,3.4341,3.4329,0,3.376,3.3816,3.3868,3.3905,3.3939,3.3994,3.4018,3.4064,3.4102,3.4135,3.4176,3.4213,3.424,3.426,3.4273,3.4318,3.4317,3.4319,3.4364,3.4365,3.435,3.4312,3.4294,3.4281,3.4329,3.4329,3.4329,0,3.3749,3.3794,3.3835,3.3903,3.3919,3.394,3.3991,3.4022,3.4074,3.4101,3.4135,3.4175,3.4206,3.4227,3.427,3.427,3.4291,3.4315,3.4316,3.4323,3.4346,3.4319,3.4278,3.4276,3.4328,3.4328,3.4328,0,3.3697,3.3767,3.3801,3.3826,3.3906,3.392,3.3953,3.4006,3.4033,3.4077,3.4095,3.414,3.4165,3.4198,3.4248,3.4259,3.4286,3.4311,3.4309,3.4308,3.4313,3.4313,3.4275,3.4324,3.4324,3.4324,3.4324,0,3.3675,3.3697,3.3779,3.3799,3.3826,3.3885,3.3909,3.3947,3.3994,3.4022,3.407,3.4095,3.4159,3.4191,3.423,3.426,3.427,3.4292,3.4303,3.4289,3.4286,3.4305,3.4307,3.4324,3.4324,3.4324,3.4324,0,3.3621,3.3677,3.3717,3.379,3.3809,3.3825,3.3887,3.3908,3.3949,3.3983,3.3995,3.4058,3.4098,3.4151,3.4207,3.4233,3.4259,3.4274,3.4242,3.4248,3.4243,3.4243,3.4218,3.4217,3.4265,3.4264,3.4264,0,3.3604,3.3624,3.3699,3.3722,3.3754,3.3791,3.3819,3.3877,3.3904,3.3964,3.3978,3.4022,3.4061,3.4122,3.4172,3.4215,3.4232,3.422,3.4239,3.4225,3.4233,3.4232,3.4234,3.4216,3.4215,3.4214,3.4214,0,3.3569,3.3595,3.3635,3.3684,3.3717,3.3758,3.3801,3.3817,3.3883,3.3911,3.3953,3.3983,3.4041,3.4084,3.4134,3.4166,3.4201,3.4207,3.4209,3.4196,3.4177,3.4189,3.4231,3.4208,3.4209,3.4209,3.4209,3.421,3.3534,3.3554,3.361,3.3653,3.3691,3.373,3.3754,3.3798,3.3836,3.3889,3.392,3.3961,3.4011,3.4082,3.4113,3.4145,3.4158,3.4161,3.4162,3.4162,3.4158,3.4171,3.4154,3.4154,3.4154,3.4154,3.4154,0,3.3502,3.3541,3.3579,3.3639,3.3672,3.3703,3.3752,3.3777,3.3813,3.3858,3.3896,3.3944,3.3986,3.4039,3.4084,3.4099,3.4116,3.4109,3.4109,3.4116,3.4142,3.4137,3.4095,3.4095,3.4095,3.4095,3.4095,3.4095,3.3489,3.3525,3.3557,3.3612,3.365,3.3692,3.3718,3.3753,3.379,3.3843,3.3878,3.3913,3.3961,3.401,3.4049,3.4063,3.4078,3.4066,3.4085,3.4109,3.4114,3.4119,3.4115,3.4069,3.4069,3.4057,3.4057,3.4057]}]]